[[{"header":{"parameterUnit":"m.s-1","parameterCategory":1,"la1":30.2991,"la2":30.254,"lo1":-89.0895,"lo2":-89.0444,"dy":0.0017,"dx":0.0017,"nx":28,"ny":28,"refTime":"2024-07-30T03:00:00:Z","depth":0,"parameterNumber":2,"parameterNumberName":"U-component_of_WINDS"},"data":[0,0,0,0,0,0,0,0,0,0,0,0,0,0,0,0,0,0,0,0,0,0,0,0,0,0,0,0,0,0,0,0,0,0,0,0,0,0,0,0,0,0,0,0,0,0,0,0,0,0,0,0,0,0,0,0,0,0,0.6864,0.6863,0,0.6812,0.6812,0.6811,0.674,0.6739,0.6737,0.6736,0.6687,0.6687,0.6687,0,0,0,0,0,0,0,0,0,0,0,0,0,0.6905,0.6904,0.6864,0.6863,0.6863,0.6812,0.6812,0.6811,0.674,0.6739,0.6737,0.6736,0.6687,0.6687,0.6687,0,0,0,0,0,0,0,0,0,0,0,0,0,0.6874,0.6904,0.6864,0.6821,0.6817,0.6813,0.6812,0.6811,0.674,0.6739,0.6737,0.6735,0.6687,0.6687,0.6687,0.6722,0,0,0.6686,0.6686,0,0,0,0,0,0,0,0,0.6876,0.6872,0.6828,0.6824,0.6819,0.6781,0.6808,0.6781,0.6741,0.677,0.6736,0.6734,0.672,0.6717,0.6711,0.6719,0.6717,0.6686,0.6686,0.6686,0.6686,0,0,0,0,0,0,0,0.6878,0.6874,0.6844,0.6828,0.6822,0.6806,0.6799,0.6803,0.6756,0.6767,0.6762,0.6756,0.6717,0.6712,0.671,0.6717,0.6686,0.6686,0.6686,0.6685,0.6751,0.6753,0,0,0,0,0,0,0.6886,0.6876,0.6845,0.6842,0.6843,0.6806,0.6799,0.6795,0.6755,0.6748,0.6758,0.6753,0.6713,0.671,0.6708,0.6745,0.6686,0.6685,0.6685,0.6749,0.6751,0.6753,0,0,0,0,0,0,0.6887,0.6884,0.6847,0.6858,0.6852,0.6808,0.6803,0.6795,0.6789,0.6749,0.674,0.6761,0.6712,0.6708,0.6718,0.6743,0.6685,0.6685,0.6747,0.675,0.6752,0.6822,0,0,0,0,0,0,0.6888,0.6885,0.6896,0.6858,0.6852,0.6858,0.6805,0.6795,0.6788,0.6782,0.6749,0.6742,0.671,0.6719,0.6718,0.6741,0.6685,0.6744,0.6748,0.6752,0.6817,0.6827,0.6835,0,0,0,0,0,0.689,0.6919,0.6897,0.6894,0.6865,0.6859,0.6856,0.6817,0.6791,0.6803,0.6777,0.6743,0.6741,0.6721,0.6719,0.6743,0.6743,0.6747,0.6751,0.6813,0.6825,0.6835,0,0,0,0,0,0,0.6961,0.6913,0.6889,0.6905,0.6887,0.6847,0.6861,0.6831,0.682,0.6815,0.6769,0.6762,0.6778,0.6762,0.6741,0.6775,0.6737,0.6741,0.6784,0.6795,0.6804,0.6807,0.6685,0,0,0,0,0,0.6979,0.6977,0.6935,0.6954,0.6946,0.6906,0.6902,0.6874,0.6853,0.6846,0.682,0.6803,0.6798,0.6796,0.6789,0.6815,0.6807,0.6831,0.6839,0.6847,0.6851,0.6863,0.6873,0.6767,0.6767,0.6767,0,0,0.7015,0.6989,0.6991,0.6968,0.695,0.6951,0.69,0.6902,0.6902,0.6846,0.6854,0.6835,0.6813,0.6831,0.6838,0.6818,0.6878,0.6852,0.6859,0.6858,0.6869,0.6879,0.6888,0.677,0.677,0.6769,0,0,0.7081,0.7061,0.7074,0.7058,0.7032,0.7004,0.7008,0.6973,0.6958,0.6965,0.6923,0.6924,0.6917,0.6902,0.6894,0.6956,0.6925,0.6956,0.7001,0.7014,0.7023,0.703,0.7052,0.706,0.696,0.696,0.696,0,0.713,0.7127,0.7086,0.709,0.7082,0.7031,0.7045,0.7031,0.7005,0.7001,0.6979,0.6969,0.695,0.6964,0.698,0.6975,0.6978,0.6958,0.7025,0.7031,0.7037,0.7058,0.7066,0.6964,0.6963,0.6963,0.6963,0,0.7188,0.7188,0.7202,0.7176,0.717,0.7179,0.714,0.7139,0.7112,0.7088,0.7097,0.7073,0.706,0.7062,0.7036,0.7073,0.7061,0.7033,0.6993,0.7052,0.707,0.7078,0.6969,0.6968,0.6967,0.6966,0,0,0.7296,0.7248,0.7254,0.7241,0.721,0.7209,0.7217,0.7204,0.7204,0.7188,0.7194,0.7189,0.7163,0.7154,0.7126,0.7138,0.7188,0.7108,0.7107,0.7123,0.7227,0.7248,0.7258,0.7168,0.7169,0.717,0.7229,0,0.7355,0.7364,0.7327,0.7346,0.7345,0.7298,0.7305,0.7287,0.7265,0.7262,0.7239,0.7236,0.7201,0.7195,0.7205,0.718,0.7209,0.7176,0.7173,0.7174,0.7179,0.7267,0.7289,0.7345,0.7236,0.7237,0.7238,0,0.7424,0.7411,0.743,0.7397,0.7395,0.7402,0.7387,0.7385,0.7364,0.7348,0.7338,0.7307,0.7313,0.7277,0.7286,0.7265,0.7262,0.725,0.7251,0.7249,0.7208,0.7266,0.7362,0.737,0.7249,0.7248,0.7247,0,0.7499,0.7487,0.7496,0.7488,0.745,0.7456,0.7441,0.7418,0.7413,0.7402,0.7398,0.7388,0.7382,0.7375,0.7342,0.7319,0.7355,0.7316,0.7342,0.7343,0.7351,0.7351,0.7447,0.7351,0.7351,0.7351,0.7351,0,0.7568,0.7581,0.7529,0.7535,0.7549,0.7508,0.7523,0.7504,0.7485,0.7487,0.7446,0.7449,0.7406,0.7405,0.7379,0.7391,0.7389,0.7376,0.7369,0.7379,0.7381,0.7376,0.737,0.7353,0.7353,0.7352,0.7352,0,0.7653,0.7619,0.7626,0.7591,0.7582,0.7594,0.7564,0.7569,0.7545,0.7548,0.7547,0.751,0.7506,0.7473,0.7463,0.7446,0.7467,0.7453,0.7474,0.7469,0.7496,0.7494,0.7592,0.7603,0.7501,0.7502,0.7503,0,0.7698,0.7707,0.7673,0.7671,0.7657,0.7655,0.7649,0.761,0.7606,0.7584,0.7592,0.7585,0.7577,0.7574,0.7547,0.754,0.7525,0.756,0.7523,0.7533,0.7524,0.7524,0.7524,0.7567,0.7568,0.7569,0.757,0,0.7782,0.7765,0.7758,0.7745,0.7739,0.7728,0.7714,0.7715,0.7673,0.7671,0.7666,0.766,0.765,0.7644,0.7631,0.7617,0.7587,0.7582,0.7588,0.7597,0.7608,0.7602,0.7494,0.758,0.7579,0.7578,0.7577,0.7577,0.7847,0.7853,0.783,0.7824,0.7809,0.7798,0.78,0.7777,0.7772,0.776,0.7738,0.7737,0.7717,0.7697,0.7686,0.7686,0.7668,0.7676,0.7678,0.768,0.7685,0.761,0.7684,0.7683,0.7683,0.7683,0.7683,0,0.7928,0.7911,0.7906,0.7887,0.7883,0.7855,0.7839,0.7837,0.7836,0.782,0.7814,0.7809,0.7804,0.7777,0.7769,0.7774,0.776,0.7773,0.7772,0.7769,0.7702,0.7698,0.7784,0.7784,0.7784,0.7784,0.7784,0.7784,0.7969,0.7977,0.7958,0.7959,0.7943,0.794,0.7934,0.7923,0.791,0.7907,0.7902,0.7884,0.7864,0.7855,0.7849,0.7841,0.784,0.7858,0.7846,0.7783,0.7774,0.7764,0.776,0.7858,0.7858,0.7912,0.7913,0.7913]},{"header":{"parameterUnit":"m.s-1","parameterCategory":1,"la1":30.2991,"la2":30.254,"lo1":-89.0895,"lo2":-89.0444,"dy":0.0017,"dx":0.0017,"nx":28,"ny":28,"refTime":"2024-07-30T03:00:00:Z","depth":0,"parameterNumber":3,"parameterNumberName":"V-component_of_WINDS"},"data":[0,0,0,0,0,0,0,0,0,0,0,0,0,0,0,0,0,0,0,0,0,0,0,0,0,0,0,0,0,0,0,0,0,0,0,0,0,0,0,0,0,0,0,0,0,0,0,0,0,0,0,0,0,0,0,0,0,0,3.4473,3.4474,0,3.4523,3.4524,3.4524,3.4501,3.4499,3.4498,3.4497,3.4543,3.4545,3.4548,0,0,0,0,0,0,0,0,0,0,0,0,0,3.4354,3.4356,3.4473,3.4474,3.4474,3.4523,3.4524,3.4524,3.4501,3.4499,3.4498,3.4496,3.4542,3.4545,3.4548,0,0,0,0,0,0,0,0,0,0,0,0,0,3.4405,3.4357,3.4473,3.4469,3.4469,3.4523,3.4524,3.4524,3.4501,3.4499,3.4497,3.4496,3.4541,3.4545,3.4548,3.4608,0,0,3.4559,3.4561,0,0,0,0,0,0,0,0,3.4402,3.4409,3.4469,3.4469,3.4469,3.4504,3.4498,3.4552,3.4502,3.4489,3.4497,3.4495,3.4531,3.4536,3.4549,3.461,3.4612,3.456,3.4562,3.4563,3.4564,0,0,0,0,0,0,0,3.4398,3.4407,3.4493,3.447,3.447,3.4463,3.4468,3.4508,3.452,3.449,3.4488,3.4495,3.4531,3.4545,3.455,3.4613,3.456,3.4563,3.4565,3.4566,3.4726,3.4728,0,0,0,0,0,0,3.4396,3.4404,3.4491,3.4494,3.4431,3.4467,3.4472,3.4495,3.4519,3.4521,3.4496,3.4493,3.454,3.4546,3.4551,3.4623,3.4563,3.4567,3.4569,3.4724,3.4727,3.4729,0,0,0,0,0,0,3.4393,3.4404,3.4489,3.4449,3.4459,3.4471,3.4496,3.4496,3.4511,3.4524,3.4526,3.4509,3.4539,3.4546,3.4595,3.4624,3.4568,3.4572,3.4722,3.4725,3.4728,3.4767,0,0,0,0,0,0,3.439,3.4403,3.4427,3.445,3.4461,3.4533,3.4498,3.4499,3.4518,3.4515,3.4537,3.4539,3.4538,3.4589,3.4598,3.4628,3.4574,3.4719,3.4723,3.4727,3.4763,3.4771,3.4778,0,0,0,0,0,3.4386,3.4434,3.4428,3.4438,3.4492,3.4535,3.4541,3.4541,3.452,3.4544,3.4552,3.4538,3.462,3.4594,3.4604,3.4636,3.4717,3.4722,3.4726,3.476,3.477,3.4778,0,0,0,0,0,0,3.4413,3.4437,3.443,3.4488,3.451,3.4531,3.456,3.4551,3.4578,3.4574,3.4571,3.4576,3.4626,3.4636,3.4607,3.4695,3.4665,3.4672,3.4687,3.4697,3.4704,3.4701,3.4577,0,0,0,0,0,3.4426,3.446,3.4479,3.4529,3.454,3.4549,3.4567,3.4565,3.4587,3.4595,3.4607,3.4627,3.4658,3.4678,3.4706,3.4765,3.4769,3.4791,3.4799,3.4805,3.4811,3.4843,3.4853,3.4744,3.4744,3.4744,0,0,3.4452,3.447,3.4492,3.4535,3.4551,3.4586,3.4556,3.4594,3.4619,3.46,3.4648,3.4657,3.4679,3.4733,3.4758,3.4743,3.4842,3.4811,3.4816,3.4818,3.4849,3.4859,3.4868,3.4747,3.4747,3.4746,0,0,3.4519,3.4536,3.4579,3.4597,3.4623,3.4629,3.4639,3.4662,3.4668,3.4716,3.4702,3.4732,3.4784,3.4801,3.4816,3.489,3.4878,3.4899,3.4938,3.4969,3.4978,3.4986,3.5012,3.5022,3.4905,3.4905,3.4905,0,3.4548,3.4602,3.4602,3.4642,3.4661,3.4648,3.4691,3.4707,3.4741,3.4754,3.4737,3.4803,3.4817,3.4875,3.4893,3.4906,3.4917,3.4897,3.4977,3.4985,3.4992,3.5017,3.5027,3.4908,3.4907,3.4907,3.4907,0,3.4637,3.4674,3.4705,3.4741,3.4763,3.4804,3.481,3.4833,3.4829,3.4836,3.4884,3.4901,3.4933,3.4946,3.4942,3.5004,3.4994,3.4977,3.4947,3.5005,3.5028,3.5038,3.4911,3.491,3.491,3.4909,0,0,3.4721,3.4757,3.4769,3.4785,3.4813,3.4841,3.4881,3.4914,3.4934,3.4957,3.4991,3.5036,3.5021,3.5038,3.5036,3.5064,3.5122,3.5043,3.5044,3.5058,3.5191,3.5204,3.5215,3.5114,3.5116,3.5117,3.5189,0,3.479,3.4863,3.4865,3.4931,3.4965,3.4953,3.4988,3.5009,3.5017,3.5046,3.5053,3.5086,3.5063,3.5074,3.5101,3.5109,3.5149,3.5104,3.5144,3.5146,3.514,3.5228,3.5241,3.5308,3.5199,3.52,3.5201,0,3.488,3.4909,3.4979,3.5003,3.5018,3.5049,3.508,3.5109,3.5131,3.5135,3.5155,3.5149,3.5189,3.5158,3.5213,3.5183,3.5199,3.5206,3.5209,3.5212,3.5177,3.5234,3.533,3.534,3.5216,3.5215,3.5214,0,3.4935,3.4991,3.504,3.5054,3.5084,3.5107,3.512,3.5141,3.5161,3.5187,3.52,3.523,3.5247,3.527,3.5272,3.5249,3.5327,3.5296,3.5331,3.5331,3.5348,3.5347,3.5448,3.5358,3.5358,3.5358,3.5358,0,3.5012,3.5055,3.5066,3.5096,3.5144,3.5146,3.5193,3.5204,3.5223,3.5255,3.5245,3.5275,3.5275,3.5305,3.5307,3.5352,3.5359,3.5363,3.5363,3.5364,3.5364,3.5375,3.537,3.5361,3.536,3.536,3.5359,0,3.5081,3.509,3.5144,3.5168,3.5175,3.521,3.523,3.5258,3.5265,3.5305,3.5315,3.5325,3.536,3.5365,3.5404,3.5405,3.546,3.5455,3.5453,3.5453,3.5488,3.5484,3.56,3.5615,3.5515,3.5516,3.5517,0,3.513,3.5164,3.5192,3.5214,3.5229,3.5263,3.5284,3.5287,3.5309,3.5338,3.5363,3.5397,3.5425,3.5481,3.5491,3.5521,3.5517,3.5555,3.5521,3.5522,3.5518,3.5516,3.552,3.5562,3.5563,3.5564,3.5564,0,3.5216,3.5219,3.5251,3.5285,3.5311,3.5337,3.5361,3.5379,3.5385,3.541,3.5446,3.5468,3.551,3.5544,3.5574,3.5586,3.5576,3.5575,3.5585,3.5587,3.5585,3.5587,3.5472,3.5572,3.5572,3.5571,3.5571,3.557,3.5277,3.5306,3.5332,3.5368,3.5387,3.541,3.5439,3.545,3.5481,3.5517,3.5516,3.5556,3.5578,3.5619,3.5633,3.5663,3.565,3.5664,3.5668,3.5672,3.5676,3.558,3.5669,3.5668,3.5668,3.5668,3.5668,0,3.5362,3.5378,3.5411,3.5447,3.5476,3.5466,3.5493,3.5517,3.5553,3.5575,3.5603,3.5645,3.5678,3.5692,3.5724,3.5746,3.5742,3.5754,3.5753,3.5756,3.5685,3.5673,3.5757,3.5757,3.5757,3.5757,3.5757,3.5756,3.541,3.546,3.5466,3.5526,3.5541,3.5582,3.5598,3.5619,3.5637,3.5685,3.5714,3.5723,3.5742,3.5775,3.5805,3.5808,3.582,3.5835,3.5836,3.5769,3.576,3.5752,3.5741,3.5837,3.5837,3.5904,3.5905,3.5905]}]]